Terug naar catalogus

COSMOS 571

ActiefMilitairLEO
NORAD 6682·PAYLOAD·🇷🇺 Russia

Gelanceerd Jun 8, 1973 vanaf Plesetsk Cosmodrome

Loading…

Volgende Passages (komende 24 uur)

TLE

VersSource: Space-Track

Epoch: Sep 14, 2026, 09:27 UTC

1 06682U 73037H   26257.39430652  .00000003  00000-0  10388-3 0  9992
2 06682  74.0183 138.9837 0103396 247.6978 227.2995 12.65927432461582

Volg COSMOS 571 in realtime met AllMySat

Download on the App Store